TimeCST,TemperatureF,Dew PointF,Humidity,Sea Level PressureIn,VisibilityMPH,Wind Direction,Wind SpeedMPH,Gust SpeedMPH,PrecipitationIn,Events,Conditions,WindDirDegrees,DateUTC
12:15 AM,28.6,19.2,68,30.18,10.0,South,4.6,-,N/A,,Clear,170,2012-12-12 06:15:00
12:35 AM,29.1,19.2,67,30.18,10.0,SSE,4.6,-,N/A,,Clear,160,2012-12-12 06:35:00
12:55 AM,27.9,18.9,69,30.17,10.0,SSE,6.9,-,N/A,,Clear,150,2012-12-12 06:55:00
1:15 AM,26.6,18.7,72,30.17,10.0,South,5.8,-,N/A,,Clear,170,2012-12-12 07:15:00
1:35 AM,26.8,18.5,71,30.18,10.0,SSE,5.8,-,N/A,,Clear,160,2012-12-12 07:35:00
1:55 AM,26.6,18.5,71,30.18,10.0,SSE,6.9,-,N/A,,Clear,160,2012-12-12 07:55:00
2:15 AM,26.6,18.3,71,30.18,10.0,SSE,5.8,-,N/A,,Clear,160,2012-12-12 08:15:00
2:35 AM,26.2,18.1,71,30.19,10.0,SSE,5.8,-,N/A,,Clear,160,2012-12-12 08:35:00
2:55 AM,25.7,17.8,72,30.19,10.0,SSE,5.8,-,N/A,,Clear,150,2012-12-12 08:55:00
3:15 AM,25.0,17.8,74,30.19,10.0,SSE,6.9,-,N/A,,Clear,160,2012-12-12 09:15:00
3:35 AM,24.8,18.1,76,30.19,10.0,SSE,5.8,-,N/A,,Clear,160,2012-12-12 09:35:00
3:55 AM,24.4,18.0,76,30.19,10.0,SSE,4.6,-,N/A,,Clear,150,2012-12-12 09:55:00
4:15 AM,24.1,18.1,78,30.18,10.0,SSE,5.8,-,N/A,,Clear,160,2012-12-12 10:15:00
4:35 AM,24.3,18.3,78,30.18,10.0,SSE,4.6,-,N/A,,Clear,160,2012-12-12 10:35:00
4:55 AM,25.2,18.9,77,30.19,10.0,South,5.8,-,N/A,,Clear,170,2012-12-12 10:55:00
5:15 AM,25.5,19.0,76,30.19,10.0,SSE,6.9,-,N/A,,Clear,150,2012-12-12 11:15:00
5:35 AM,24.3,18.3,78,30.20,10.0,SSE,5.8,-,N/A,,Clear,160,2012-12-12 11:35:00
5:55 AM,24.4,18.5,78,30.21,10.0,South,5.8,-,N/A,,Clear,170,2012-12-12 11:55:00
6:15 AM,25.0,18.7,77,30.22,10.0,SSE,4.6,-,N/A,,Clear,160,2012-12-12 12:15:00
6:35 AM,24.6,18.3,77,30.22,10.0,Calm,Calm,-,N/A,,Clear,0,2012-12-12 12:35:00
6:55 AM,25.2,18.3,75,30.23,10.0,South,6.9,-,N/A,,Clear,170,2012-12-12 12:55:00
7:15 AM,25.7,18.5,74,30.23,10.0,South,5.8,-,N/A,,Clear,170,2012-12-12 13:15:00
7:35 AM,25.7,18.5,74,30.23,10.0,SSE,6.9,-,N/A,,Clear,160,2012-12-12 13:35:00
7:55 AM,26.6,19.0,73,30.23,10.0,South,5.8,-,N/A,,Clear,170,2012-12-12 13:55:00
8:15 AM,28.4,19.9,71,30.24,10.0,SSE,5.8,-,N/A,,Clear,160,2012-12-12 14:15:00
8:35 AM,30.2,20.7,68,30.24,10.0,SSE,6.9,-,N/A,,Clear,160,2012-12-12 14:35:00
8:55 AM,31.8,21.0,64,30.24,10.0,SSE,6.9,-,N/A,,Clear,160,2012-12-12 14:55:00
9:15 AM,33.6,21.4,61,30.25,10.0,South,5.8,-,N/A,,Clear,170,2012-12-12 15:15:00
9:35 AM,36.0,22.5,58,30.26,10.0,South,5.8,-,N/A,,Clear,170,2012-12-12 15:35:00
9:55 AM,38.8,22.5,52,30.26,10.0,South,6.9,-,N/A,,Clear,180,2012-12-12 15:55:00
10:15 AM,40.6,21.0,46,30.27,10.0,SSW,6.9,-,N/A,,Clear,200,2012-12-12 16:15:00
10:35 AM,42.3,21.0,43,30.27,10.0,South,6.9,-,N/A,,Clear,180,2012-12-12 16:35:00
10:55 AM,44.2,20.3,39,30.27,10.0,SSW,8.1,-,N/A,,Clear,210,2012-12-12 16:55:00
11:15 AM,46.0,17.6,32,30.27,10.0,South,10.4,-,N/A,,Clear,190,2012-12-12 17:15:00
11:35 AM,47.3,17.4,30,30.26,10.0,SSW,10.4,-,N/A,,Clear,200,2012-12-12 17:35:00
11:55 AM,48.4,16.7,28,30.25,10.0,SSW,9.2,-,N/A,,Clear,200,2012-12-12 17:55:00
12:15 PM,49.3,16.0,27,30.24,10.0,South,10.4,-,N/A,,Clear,190,2012-12-12 18:15:00
12:35 PM,50.2,15.3,25,30.23,10.0,South,11.5,-,N/A,,Clear,180,2012-12-12 18:35:00
12:55 PM,50.9,13.6,23,30.23,10.0,SSW,9.2,-,N/A,,Unknown,200,2012-12-12 18:55:00
1:15 PM,51.1,12.6,21,30.22,10.0,South,12.7,18.4,N/A,,Unknown,190,2012-12-12 19:15:00
1:35 PM,51.1,11.1,20,30.21,10.0,South,13.8,18.4,N/A,,Unknown,180,2012-12-12 19:35:00
1:55 PM,51.1,10.9,20,30.19,10.0,South,10.4,19.6,N/A,,Unknown,190,2012-12-12 19:55:00
2:15 PM,51.4,10.6,19,30.19,10.0,SSW,12.7,17.3,N/A,,Clear,210,2012-12-12 20:15:00
2:35 PM,51.6,10.4,19,30.19,10.0,South,9.2,-,N/A,,Clear,190,2012-12-12 20:35:00
2:55 PM,51.8,11.1,20,30.19,10.0,SSW,13.8,20.7,N/A,,Clear,210,2012-12-12 20:55:00
3:15 PM,51.3,11.8,21,30.19,10.0,South,8.1,18.4,N/A,,Clear,190,2012-12-12 21:15:00
3:35 PM,51.1,12.7,22,30.19,10.0,South,12.7,-,N/A,,Clear,180,2012-12-12 21:35:00
3:55 PM,50.5,13.1,22,30.19,10.0,South,9.2,-,N/A,,Clear,180,2012-12-12 21:55:00
4:15 PM,49.5,14.2,24,30.19,10.0,South,10.4,-,N/A,,Clear,170,2012-12-12 22:15:00
4:35 PM,47.8,14.9,27,30.18,10.0,South,10.4,-,N/A,,Clear,170,2012-12-12 22:35:00
4:55 PM,45.9,15.1,29,30.18,10.0,South,6.9,-,N/A,,Clear,180,2012-12-12 22:55:00
5:15 PM,43.9,15.1,31,30.18,10.0,SSE,6.9,-,N/A,,Clear,160,2012-12-12 23:15:00
6:15 PM,40.8,14.9,35,30.18,10.0,SE,5.8,-,N/A,,Clear,140,2012-12-13 00:15:00
6:35 PM,39.4,15.6,38,30.18,10.0,SE,6.9,-,N/A,,Clear,140,2012-12-13 00:35:00
6:55 PM,38.1,16.7,42,30.18,10.0,SE,8.1,-,N/A,,Clear,140,2012-12-13 00:55:00
7:15 PM,37.0,16.9,44,30.18,10.0,SSE,9.2,-,N/A,,Clear,150,2012-12-13 01:15:00
7:35 PM,36.1,17.1,46,30.18,10.0,SE,9.2,-,N/A,,Clear,140,2012-12-13 01:35:00
7:55 PM,36.1,17.2,46,30.18,10.0,SE,8.1,-,N/A,,Clear,140,2012-12-13 01:55:00
8:15 PM,36.1,16.5,45,30.18,10.0,SSE,9.2,-,N/A,,Clear,150,2012-12-13 02:15:00
8:35 PM,36.3,16.5,45,30.19,10.0,SSE,6.9,-,N/A,,Clear,160,2012-12-13 02:35:00
8:55 PM,36.7,16.2,43,30.19,10.0,SSE,8.1,-,N/A,,Clear,160,2012-12-13 02:55:00
9:35 PM,37.6,16.7,43,30.19,10.0,SSE,10.4,-,N/A,,Clear,160,2012-12-13 03:35:00
9:55 PM,38.1,16.9,42,30.18,10.0,SSE,11.5,17.3,N/A,,Clear,160,2012-12-13 03:55:00
10:15 PM,38.3,16.7,42,30.21,10.0,South,8.1,-,N/A,,Clear,170,2012-12-13 04:15:00
10:35 PM,37.8,16.9,43,30.22,10.0,SSE,8.1,-,N/A,,Clear,160,2012-12-13 04:35:00
10:55 PM,37.6,16.5,42,30.22,10.0,SSE,8.1,-,N/A,,Clear,160,2012-12-13 04:55:00
11:15 PM,36.9,16.3,43,30.22,10.0,SSE,6.9,-,N/A,,Clear,150,2012-12-13 05:15:00
11:35 PM,36.5,16.3,44,30.23,10.0,SSE,8.1,-,N/A,,Clear,150,2012-12-13 05:35:00
11:55 PM,35.2,16.7,47,30.23,10.0,SSE,8.1,-,N/A,,Clear,160,2012-12-13 05:55:00